N858BE RPLL-RPLL

Flight info

Callsign N858BE
Flight time 0h 24m
Altitude 3500
Route LOCAL FLIGHT
Aircraft BE58/L-SD/C

Departure

Time 2026-05-07 14:46
Airport Ninoy Aquino International Airport (RPLL)

Arrival

Time 2026-05-07 15:10
Airport Ninoy Aquino International Airport (RPLL)
Time Latitude Longitude Altitude Speed Heading
2026-05-07 14:23 14.52728 121.00179 63 ft 0 kts 176°
2026-05-07 14:42 14.52718 121.00215 63 ft 11 kts 116°
2026-05-07 14:42 14.52645 121.00226 62 ft 13 kts 179°
2026-05-07 14:43 14.52611 121.00215 63 ft 0 kts 283°
2026-05-07 14:44 14.52614 121.00200 62 ft 8 kts 279°
2026-05-07 14:45 14.52561 121.00202 60 ft 16 kts 135°
2026-05-07 14:45 14.52470 121.00296 62 ft 20 kts 136°
2026-05-07 14:45 14.52369 121.00396 61 ft 18 kts 135°
2026-05-07 14:45 14.52344 121.00422 62 ft 7 kts 135°
2026-05-07 14:46 14.52131 121.00644 61 ft 85 kts 135°
2026-05-07 14:46 14.51581 121.01203 164 ft 129 kts 134°
2026-05-07 14:46 14.50896 121.01907 425 ft 144 kts 135°
2026-05-07 14:46 14.50173 121.02645 704 ft 153 kts 134°
2026-05-07 14:47 14.49391 121.03438 832 ft 161 kts 134°
2026-05-07 14:47 14.48599 121.04251 981 ft 160 kts 133°
2026-05-07 14:47 14.47851 121.05110 1080 ft 163 kts 129°
2026-05-07 14:47 14.47080 121.05966 1181 ft 165 kts 141°
2026-05-07 14:48 14.45980 121.06328 1216 ft 173 kts 177°
2026-05-07 14:48 14.44834 121.05972 1257 ft 175 kts 213°
2026-05-07 14:48 14.44160 121.04961 1283 ft 176 kts 259°
2026-05-07 14:48 14.44359 121.03749 1344 ft 173 kts 299°
2026-05-07 14:49 14.45015 121.02708 1321 ft 174 kts 306°
2026-05-07 14:49 14.45684 121.01666 1309 ft 174 kts 307°
2026-05-07 14:49 14.46394 121.00647 1322 ft 176 kts 310°
2026-05-07 14:49 14.47191 120.99696 1310 ft 175 kts 316°
2026-05-07 14:50 14.48059 120.98815 1316 ft 173 kts 313°
2026-05-07 14:50 14.48598 120.97714 1352 ft 177 kts 280°
2026-05-07 14:50 14.48620 120.96442 1347 ft 178 kts 269°
2026-05-07 14:50 14.48605 120.95180 1358 ft 178 kts 271°
2026-05-07 14:51 14.48690 120.93913 1395 ft 178 kts 275°
2026-05-07 14:51 14.48825 120.92639 1378 ft 180 kts 277°
2026-05-07 14:51 14.49030 120.91361 1364 ft 182 kts 281°
2026-05-07 14:51 14.49298 120.90090 1380 ft 182 kts 283°
2026-05-07 14:52 14.49573 120.88814 1390 ft 181 kts 282°
2026-05-07 14:52 14.49742 120.87974 1424 ft 181 kts 282°
2026-05-07 14:52 14.49884 120.86252 1435 ft 179 kts 263°
2026-05-07 14:52 14.49568 120.85015 1417 ft 178 kts 250°
2026-05-07 14:53 14.49138 120.83828 1495 ft 174 kts 248°
2026-05-07 14:53 14.48716 120.82673 1608 ft 171 kts 248°
2026-05-07 14:53 14.48329 120.81516 1683 ft 170 kts 249°
2026-05-07 14:53 14.47990 120.80361 1815 ft 167 kts 251°
2026-05-07 14:54 14.47647 120.79234 1934 ft 166 kts 251°
2026-05-07 14:54 14.47301 120.78092 2051 ft 168 kts 252°
2026-05-07 14:54 14.46948 120.76951 2183 ft 166 kts 251°
2026-05-07 14:54 14.46520 120.75821 2193 ft 173 kts 246°
2026-05-07 14:55 14.46060 120.74672 2239 ft 174 kts 248°
2026-05-07 14:55 14.45636 120.73489 2228 ft 180 kts 248°
2026-05-07 14:55 14.45218 120.72246 2218 ft 187 kts 247°
2026-05-07 14:55 14.44767 120.70980 2235 ft 187 kts 246°
2026-05-07 14:56 14.44301 120.69729 2280 ft 187 kts 246°
2026-05-07 14:56 14.43821 120.68480 2333 ft 188 kts 245°
2026-05-07 14:56 14.43344 120.67223 2358 ft 190 kts 245°
2026-05-07 14:56 14.42842 120.65944 2336 ft 193 kts 244°
2026-05-07 14:57 14.42318 120.64683 2352 ft 190 kts 243°
2026-05-07 14:57 14.41781 120.63435 2345 ft 190 kts 243°
2026-05-07 14:57 14.41249 120.62201 2397 ft 187 kts 243°
2026-05-07 14:57 14.40777 120.60929 2380 ft 193 kts 247°
2026-05-07 14:58 14.40454 120.59585 2404 ft 194 kts 260°
2026-05-07 14:58 14.40230 120.58204 2406 ft 194 kts 257°
2026-05-07 14:58 14.39718 120.56991 2564 ft 179 kts 223°
2026-05-07 14:58 14.38678 120.56442 2621 ft 164 kts 177°
2026-05-07 14:59 14.37656 120.56817 2539 ft 159 kts 133°
2026-05-07 14:59 14.37190 120.57792 2540 ft 151 kts 96°
2026-05-07 14:59 14.37245 120.58856 2577 ft 147 kts 77°
2026-05-07 14:59 14.37746 120.59768 2535 ft 152 kts 55°
2026-05-07 15:00 14.38434 120.60593 2533 ft 151 kts 54°
2026-05-07 15:00 14.39151 120.61383 2538 ft 151 kts 53°
2026-05-07 15:00 14.39873 120.62184 2486 ft 154 kts 53°
2026-05-07 15:00 14.40590 120.63018 2472 ft 155 kts 54°
2026-05-07 15:01 14.41260 120.63875 2448 ft 153 kts 57°
2026-05-07 15:01 14.41872 120.64757 2438 ft 151 kts 62°
2026-05-07 15:01 14.42438 120.65672 2411 ft 151 kts 61°
2026-05-07 15:01 14.43026 120.66555 2429 ft 149 kts 59°
2026-05-07 15:02 14.43641 120.67425 2420 ft 152 kts 58°
2026-05-07 15:02 14.44287 120.68296 2423 ft 152 kts 57°
2026-05-07 15:02 14.44895 120.69173 2472 ft 150 kts 60°
2026-05-07 15:02 14.45478 120.70071 2452 ft 151 kts 60°
2026-05-07 15:03 14.46062 120.70968 2439 ft 150 kts 60°
2026-05-07 15:03 14.46658 120.71867 2414 ft 155 kts 56°
2026-05-07 15:03 14.47262 120.72798 2351 ft 162 kts 58°
2026-05-07 15:03 14.47895 120.73778 2285 ft 166 kts 57°
2026-05-07 15:04 14.48540 120.74777 2198 ft 169 kts 58°
2026-05-07 15:04 14.49152 120.75813 2110 ft 169 kts 59°
2026-05-07 15:04 14.49781 120.76843 2018 ft 170 kts 59°
2026-05-07 15:04 14.50409 120.77876 1908 ft 171 kts 61°
2026-05-07 15:05 14.50938 120.78961 1822 ft 168 kts 66°
2026-05-07 15:05 14.51394 120.80075 1685 ft 169 kts 69°
2026-05-07 15:05 14.51804 120.81220 1483 ft 173 kts 72°
2026-05-07 15:05 14.52164 120.82386 1456 ft 167 kts 75°
2026-05-07 15:06 14.52449 120.83527 1460 ft 162 kts 79°
2026-05-07 15:06 14.52659 120.84675 1409 ft 162 kts 83°
2026-05-07 15:06 14.52790 120.85834 1397 ft 163 kts 85°
2026-05-07 15:06 14.52888 120.86989 1420 ft 162 kts 86°
2026-05-07 15:07 14.52973 120.88148 1417 ft 160 kts 86°
2026-05-07 15:07 14.53046 120.89287 1409 ft 158 kts 86°
2026-05-07 15:07 14.53176 120.90413 1327 ft 159 kts 82°
2026-05-07 15:07 14.53364 120.91538 1236 ft 158 kts 81°
2026-05-07 15:08 14.53437 120.92640 1222 ft 152 kts 92°
2026-05-07 15:08 14.53389 120.93711 1236 ft 147 kts 92°
2026-05-07 15:08 14.53468 120.94748 1280 ft 139 kts 80°
2026-05-07 15:08 14.53675 120.95680 1268 ft 129 kts 75°
2026-05-07 15:09 14.53912 120.96591 1151 ft 133 kts 76°
2026-05-07 15:09 14.54117 120.97529 990 ft 133 kts 81°
2026-05-07 15:09 14.54032 120.98444 796 ft 129 kts 109°
2026-05-07 15:09 14.53586 120.99218 602 ft 122 kts 135°
2026-05-07 15:10 14.52970 120.99800 332 ft 115 kts 135°
2026-05-07 15:10 14.52458 121.00313 123 ft 92 kts 134°
2026-05-07 15:10 14.52049 121.00730 63 ft 70 kts 133°
2026-05-07 15:10 14.51768 121.01020 62 ft 48 kts 135°
2026-05-07 15:11 14.51593 121.01203 62 ft 15 kts 121°
2026-05-07 15:11 14.51617 121.01264 64 ft 3 kts 43°
2026-05-07 15:11 14.51627 121.01273 62 ft 5 kts 39°
2026-05-07 15:11 14.51682 121.01253 63 ft 13 kts 315°
2026-05-07 15:12 14.51762 121.01170 62 ft 19 kts 315°
2026-05-07 15:12 14.51845 121.01086 64 ft 18 kts 314°
2026-05-07 15:12 14.51943 121.00983 63 ft 22 kts 315°
2026-05-07 15:12 14.52049 121.00874 62 ft 18 kts 315°
2026-05-07 15:13 14.52131 121.00790 63 ft 10 kts 315°
2026-05-07 15:13 14.52142 121.00778 63 ft 0 kts 315°
2026-05-07 15:13 14.52143 121.00778 63 ft 0 kts 315°
2026-05-07 15:15 14.52147 121.00773 57 ft 4 kts 315°
2026-05-07 15:15 14.52205 121.00767 63 ft 14 kts 39°
2026-05-07 15:15 14.52295 121.00723 63 ft 20 kts 315°
2026-05-07 15:15 14.52400 121.00617 63 ft 22 kts 315°
2026-05-07 15:16 14.52462 121.00552 63 ft 19 kts 315°
2026-05-07 15:16 14.52526 121.00486 63 ft 19 kts 313°
2026-05-07 15:17 14.52723 121.00215 59 ft 10 kts 346°
2026-05-07 15:17 14.52752 121.00197 63 ft 0 kts 248°